Weather History for Sarasota, FL

Change the Weather History Date:

Tuesday, January 20, 1998

  Actual Average Record
Temperature  
Mean Temperature 61 °F 61 °F  
Max Temperature 69 °F 71 °F 86 °F (1990)
Min Temperature 53 °F 52 °F 25 °F (1977)
Degree Days  
Heating Degree Days 4 5  
Month to date heating degree days 109  
Since 1 July heating degree days 264  
Cooling Degree Days 0 2  
Month to date cooling degree days 40  
Year to date cooling degree days 40  
Growing Degree Days 11 (Base 50)    
Moisture  
Dew Point 55 °F    
Average Humidity 82    
Maximum Humidity 94    
Minimum Humidity 56    
Precipitation  
Precipitation 0.00 in 0.05 in 1.62 in (1978)
Month to date precipitation 1.86  
Year to date precipitation 1.86  
Sea Level Pressure  
Sea Level Pressure 30.03 in    
Wind  
Wind Speed 7 mph (ENE)    
Max Wind Speed 10 mph    
Max Gust Speed -    
Visibility 10 miles    
Events      
T = Trace of Precipitation, MM = Missing Value Source: NWS Daily Summary

Daily Weather History Graph

Daily Weather History Graph

Search for Another Location

Airport:

Trip Planner

Search our weather history database for the weather conditions in past years. The results will help you decide how hot, cold, wet, or windy it might be!

Date:

Astronomy

Jan. 20, 1998 Rise Set
Actual Time 7:20 AM EST 6:01 PM EST
Civil Twilight 6:56 AM EST 6:26 PM EST
Nautical Twilight 6:27 AM EST 6:55 PM EST
Astronomical Twilight 5:59 AM EST 7:23 PM EST
Moon 12:16 AM EST (1/20) 12:08 PM EST (1/20)
Length of Visible Light 11h 30m
Length of Day
10h 41m
Waning Gibbous, 51% of the Moon is Illuminated
Jan 20
Waning Gibbous
Jan 20
Last Quarter
Jan 28
New
Feb 3
First Quarter
Feb 11
Full

Hourly Weather History & Observations

Time (EST) Temp. Dew Point Humidity Pressure Visibility Wind Dir Wind Speed Gust Speed Precip Events Conditions
5:50 AM 55.4 °F 51.8 °F 88% 29.99 in 10.0 mi ENE 10.4 mph - N/A   Overcast
6:50 AM 53.6 °F 51.8 °F 94% 30.02 in 7.0 mi ENE 8.1 mph - N/A   Overcast
7:50 AM 53.6 °F 50.0 °F 88% 30.04 in 3.0 mi NE 10.4 mph - N/A   Overcast
8:50 AM 53.6 °F 50.0 °F 88% 30.06 in 4.0 mi East 8.1 mph - N/A   Overcast
9:50 AM 53.6 °F 50.0 °F 88% 30.06 in 3.0 mi East 8.1 mph - N/A   Overcast
10:50 AM 57.2 °F 51.8 °F 82% 30.09 in 10.0 mi ESE 8.1 mph - N/A   Mostly Cloudy
11:50 AM 59.0 °F 51.8 °F 77% 30.07 in 10.0 mi East 6.9 mph - N/A   Mostly Cloudy
12:50 PM 64.4 °F 55.4 °F 73% 30.03 in 10.0 mi ESE 6.9 mph - N/A   Mostly Cloudy
1:50 PM 66.2 °F 53.6 °F 64% 29.99 in 10.0 mi SE 6.9 mph - N/A   Mostly Cloudy
2:50 PM 69.8 °F 53.6 °F 56% 29.98 in 10.0 mi ESE 6.9 mph - N/A   Mostly Cloudy
3:50 PM 64.4 °F 59.0 °F 83% 29.99 in 10.0 mi WSW 6.9 mph - N/A   Overcast
4:50 PM 62.6 °F 57.2 °F 82% 29.98 in 10.0 mi NW 3.5 mph - N/A   Overcast
5:50 PM 62.6 °F 57.2 °F 82% 30.00 in 10.0 mi Calm Calm - N/A   Mostly Cloudy
6:50 PM 62.6 °F 59.0 °F 88% 30.02 in 10.0 mi WNW 3.5 mph - N/A   Mostly Cloudy
7:50 PM 62.6 °F 59.0 °F 88% 30.03 in 10.0 mi Calm Calm - N/A   Scattered Clouds
8:50 PM 62.6 °F 57.2 °F 82% 30.04 in 15.0 mi NNE 3.5 mph - N/A   Scattered Clouds
9:50 PM 62.6 °F 57.2 °F 82% 30.05 in 15.0 mi NE 3.5 mph - N/A   Mostly Cloudy
10:50 PM 60.8 °F 55.4 °F 82% 30.04 in 15.0 mi Calm Calm - N/A   Mostly Cloudy
11:50 PM 60.8 °F 57.2 °F 88% 30.04 in 15.0 mi Calm Calm - N/A   Mostly Cloudy